User: anonymous   Login
Location: Buckeye Ditch
(40.9104°N, 122.9517°W)
Time: 11:44:02
(UTC+00:00)
Language:

Cosmos 1340 - Orbit

View from above orbital plane
View from above orbital plane
View from above satellite
View from above satellite

Ground track
Ground track

The orbit data is extracted from the following two-line orbital elements,

1 13067U 82013A   24171.92406532  .00017646  00000-0  38314-3 0  9993
2 13067  81.1755   9.4748 0002722 150.5387 209.6010 15.44237762317279
Epoch (UTC): 19 June 2024 22:10:39
Eccentricity: 0.0002722
inclination: 81.1755°
perigee height: 432 km
apogee height: 435 km
right ascension of ascending node: 9.4748°
argument of perigee: 150.5387°
revolutions per day: 15.44237762
mean anomaly at epoch: 209.6010°
orbit number at epoch: 31727

The dashed part of the orbit path shows where the satellite is in the earth's shadow,  

DLR